RASSVET-3 16

导读

RASSVET-3 16(NORAD 68375)是俄罗斯Buro 1440公司研发的“黎明-3”低轨互联网卫星,属于俄罗斯打造的“星链”计划的首批卫星之一,2026年3月23日俄罗斯通过联盟-2火箭完成16颗同批次卫星发射,发射过程未公开。该卫星单星质量约370公斤,入轨初始轨道参数为近地点290公里、远地点324公里,倾角82.3度,后续完成测试后将进入目标轨道,提供全球低轨互联网服务,是俄罗斯低轨通信星座布局的重要一步。

Basic Information
目录编号:
68375
目录名称:
RASSVET-3 16
国际标识:
2026-061R
轨道中心:
EARTH
卫星名称:
RASSVET-3 16
卫星全名:
RASSVET-3 16
卫星状态:
在轨 (已飞行165 天)
发射日期:
2026-03-23 UTC
国别 :
俄罗斯(独联体) (CIS)
星等 :
--
Orbit Information
数据来源 国际轨道数据
星历时间: 2026-09-03T12:11:44+0800
1天前
查看轨道信息
半长轴: 6889.007km
偏心率: 0.0003072
轨道倾角: 82.291°
近地点辐角 96.574°
升交点赤经 292.751°
平近点角 263.585°
近地点: 508.753km
远地点: 512.987km
周期: 94.841分钟
每日圈数: 15.183359
Detailed Information
使用方式:
暂无
2D Orbit Map
3D Orbit Map
Orbit Altitude Analysis Chart
Orbit Inclination Analysis Chart
Orbit Comprehensive Analysis Chart
View Comprehensive Chart